Time,TemperatureF,DewpointF,PressureIn,WindDirection,WindDirectionDegrees,WindSpeedMPH,WindSpeedGustMPH,Humidity,HourlyPrecipIn,Conditions,Clouds,dailyrainin,SolarRadiationWatts/m^2,SoftwareType,DateUTC
2013-09-03 00:14:00,68.0,61.0,-100.00,NE,34,3.0,6.0,78,0.00,,,0.00,0.000000,,2013-09-03 04:14:00,
2013-09-03 00:25:00,68.0,61.0,-100.00,NE,34,3.0,6.0,78,0.00,,,0.00,0.000000,,2013-09-03 04:25:00,
2013-09-03 00:34:00,68.0,61.0,-100.00,NE,34,3.0,6.0,78,0.00,,,0.00,0.000000,,2013-09-03 04:34:00,
2013-09-03 00:44:00,68.0,61.0,-100.00,NE,34,3.0,6.0,78,0.00,,,0.00,0.000000,,2013-09-03 04:44:00,
2013-09-03 01:12:00,66.0,60.0,-100.00,NE,39,2.0,4.0,81,0.00,,,0.00,0.000000,,2013-09-03 05:12:00,
2013-09-03 01:23:00,66.0,60.0,-100.00,NE,39,2.0,4.0,81,0.00,,,0.00,0.000000,,2013-09-03 05:23:00,
2013-09-03 01:34:00,66.0,60.0,-100.00,NE,39,2.0,4.0,81,0.00,,,0.00,0.000000,,2013-09-03 05:34:00,
2013-09-03 01:43:00,66.0,60.0,-100.00,NE,39,2.0,4.0,81,0.00,,,0.00,0.000000,,2013-09-03 05:43:00,
2013-09-03 03:12:00,63.0,58.0,-100.00,NE,38,4.0,6.0,85,-99.99,,,0.00,0.000000,,2013-09-03 07:12:00,
2013-09-03 03:22:00,63.0,58.0,-100.00,NE,38,4.0,6.0,85,-99.99,,,0.00,0.000000,,2013-09-03 07:22:00,
2013-09-03 03:32:00,63.0,58.0,-100.00,NE,38,4.0,6.0,85,-99.99,,,0.00,0.000000,,2013-09-03 07:32:00,
2013-09-03 03:42:00,63.0,58.0,-100.00,NE,38,4.0,6.0,85,-99.99,,,0.00,0.000000,,2013-09-03 07:42:00,
2013-09-03 04:11:00,62.0,58.0,-100.00,ENE,69,3.0,5.0,88,0.00,,,0.00,0.000000,,2013-09-03 08:11:00,
2013-09-03 04:22:00,62.0,58.0,-100.00,ENE,69,3.0,5.0,88,0.00,,,0.00,0.000000,,2013-09-03 08:22:00,
2013-09-03 04:32:00,62.0,58.0,-100.00,ENE,69,3.0,5.0,88,0.00,,,0.00,0.000000,,2013-09-03 08:32:00,
2013-09-03 04:42:00,62.0,58.0,-100.00,ENE,69,3.0,5.0,88,0.00,,,0.00,0.000000,,2013-09-03 08:42:00,
2013-09-03 05:12:00,61.0,58.0,-100.00,North,354,4.0,5.0,91,0.00,,,0.00,0.000000,,2013-09-03 09:12:00,
2013-09-03 05:22:00,61.0,58.0,-100.00,North,354,4.0,5.0,91,0.00,,,0.00,0.000000,,2013-09-03 09:22:00,
2013-09-03 05:34:00,61.0,58.0,-100.00,North,354,4.0,5.0,91,0.00,,,0.00,0.000000,,2013-09-03 09:34:00,
2013-09-03 05:43:00,61.0,58.0,-100.00,North,354,4.0,5.0,91,0.00,,,0.00,0.000000,,2013-09-03 09:43:00,
2013-09-03 06:13:00,60.0,58.0,-100.00,NNE,13,2.0,6.0,93,0.00,,,0.00,0.000000,,2013-09-03 10:13:00,
2013-09-03 06:23:00,60.0,58.0,-100.00,NNE,13,2.0,6.0,93,0.00,,,0.00,0.000000,,2013-09-03 10:23:00,
2013-09-03 06:33:00,60.0,58.0,-100.00,NNE,13,2.0,6.0,93,0.00,,,0.00,0.000000,,2013-09-03 10:33:00,
2013-09-03 06:42:00,60.0,58.0,-100.00,NNE,13,2.0,6.0,93,0.00,,,0.00,0.000000,,2013-09-03 10:42:00,
2013-09-03 07:12:00,59.0,57.0,-100.00,North,3,3.0,6.0,94,0.00,,,0.00,0.000000,,2013-09-03 11:12:00,
2013-09-03 07:23:00,59.0,57.0,-100.00,North,3,3.0,6.0,94,0.00,,,0.00,0.000000,,2013-09-03 11:23:00,
2013-09-03 07:33:00,59.0,57.0,-100.00,North,3,3.0,6.0,94,0.00,,,0.00,0.000000,,2013-09-03 11:33:00,
2013-09-03 07:43:00,59.0,57.0,-100.00,North,3,3.0,6.0,94,0.00,,,0.00,0.000000,,2013-09-03 11:43:00,
2013-09-03 08:12:00,58.0,57.0,-100.00,NNW,348,4.0,7.0,95,0.00,,,0.00,16.000000,,2013-09-03 12:12:00,
2013-09-03 08:22:00,58.0,57.0,-100.00,NNW,348,4.0,7.0,95,0.00,,,0.00,16.000000,,2013-09-03 12:22:00,
2013-09-03 08:32:00,58.0,57.0,-100.00,NNW,348,4.0,7.0,95,0.00,,,0.00,16.000000,,2013-09-03 12:32:00,
2013-09-03 08:42:00,58.0,57.0,-100.00,NNW,348,4.0,7.0,95,0.00,,,0.00,16.000000,,2013-09-03 12:42:00,
2013-09-03 09:11:00,60.0,56.0,-100.00,North,8,5.0,9.0,86,0.00,,,0.00,170.000000,,2013-09-03 13:11:00,
2013-09-03 09:22:00,60.0,56.0,-100.00,North,8,5.0,9.0,86,0.00,,,0.00,170.000000,,2013-09-03 13:22:00,
2013-09-03 09:32:00,60.0,56.0,-100.00,North,8,5.0,9.0,86,0.00,,,0.00,170.000000,,2013-09-03 13:32:00,
2013-09-03 09:42:00,60.0,56.0,-100.00,North,8,5.0,9.0,86,0.00,,,0.00,170.000000,,2013-09-03 13:42:00,
2013-09-03 10:11:00,63.0,56.0,-100.00,NNE,30,7.0,11.0,78,0.00,,,0.00,388.000000,,2013-09-03 14:11:00,
2013-09-03 10:21:00,63.0,56.0,-100.00,NNE,30,7.0,11.0,78,0.00,,,0.00,388.000000,,2013-09-03 14:21:00,
2013-09-03 10:32:00,63.0,56.0,-100.00,NNE,30,7.0,11.0,78,0.00,,,0.00,388.000000,,2013-09-03 14:32:00,
2013-09-03 10:42:00,63.0,56.0,-100.00,NNE,30,7.0,11.0,78,0.00,,,0.00,388.000000,,2013-09-03 14:42:00,
2013-09-03 11:22:00,66.0,56.0,-100.00,NNE,22,6.0,12.0,71,0.00,,,0.00,608.000000,,2013-09-03 15:22:00,
2013-09-03 11:34:00,66.0,56.0,-100.00,NNE,22,6.0,12.0,71,0.00,,,0.00,608.000000,,2013-09-03 15:34:00,
2013-09-03 11:43:00,66.0,56.0,-100.00,NNE,22,6.0,12.0,71,0.00,,,0.00,608.000000,,2013-09-03 15:43:00,
2013-09-03 12:14:00,68.0,54.0,-100.00,NNW,344,7.0,13.0,61,0.00,,,0.00,789.000000,,2013-09-03 16:14:00,
2013-09-03 12:24:00,68.0,54.0,-100.00,NNW,344,7.0,13.0,61,0.00,,,0.00,789.000000,,2013-09-03 16:24:00,
2013-09-03 12:34:00,68.0,54.0,-100.00,NNW,344,7.0,13.0,61,0.00,,,0.00,789.000000,,2013-09-03 16:34:00,
2013-09-03 12:43:00,68.0,54.0,-100.00,NNW,344,7.0,13.0,61,0.00,,,0.00,789.000000,,2013-09-03 16:43:00,
2013-09-03 13:13:00,71.0,54.0,-100.00,North,359,5.0,16.0,55,0.00,,,0.00,920.000000,,2013-09-03 17:13:00,
2013-09-03 13:23:00,71.0,54.0,-100.00,North,359,5.0,16.0,55,0.00,,,0.00,920.000000,,2013-09-03 17:23:00,
2013-09-03 13:34:00,71.0,54.0,-100.00,North,359,5.0,16.0,55,0.00,,,0.00,920.000000,,2013-09-03 17:34:00,
2013-09-03 13:43:00,71.0,54.0,-100.00,North,359,5.0,16.0,55,0.00,,,0.00,920.000000,,2013-09-03 17:43:00,
2013-09-03 14:12:00,73.0,53.0,-100.00,NNE,13,7.0,15.0,50,0.00,,,0.00,986.000000,,2013-09-03 18:12:00,
2013-09-03 14:22:00,73.0,53.0,-100.00,NNE,13,7.0,15.0,50,0.00,,,0.00,986.000000,,2013-09-03 18:22:00,
2013-09-03 14:32:00,73.0,53.0,-100.00,NNE,13,7.0,15.0,50,0.00,,,0.00,986.000000,,2013-09-03 18:32:00,
2013-09-03 14:43:00,73.0,53.0,-100.00,NNE,13,7.0,15.0,50,0.00,,,0.00,986.000000,,2013-09-03 18:43:00,
2013-09-03 15:11:00,73.0,52.0,-100.00,North,355,6.0,14.0,48,0.00,,,0.00,981.000000,,2013-09-03 19:11:00,
2013-09-03 15:22:00,73.0,52.0,-100.00,North,355,6.0,14.0,48,0.00,,,0.00,981.000000,,2013-09-03 19:22:00,
2013-09-03 15:32:00,73.0,52.0,-100.00,North,355,6.0,14.0,48,0.00,,,0.00,981.000000,,2013-09-03 19:32:00,
2013-09-03 15:42:00,73.0,52.0,-100.00,North,355,6.0,14.0,48,0.00,,,0.00,981.000000,,2013-09-03 19:42:00,
2013-09-03 16:11:00,74.0,53.0,-100.00,North,2,7.0,17.0,48,0.00,,,0.00,905.000000,,2013-09-03 20:11:00,
2013-09-03 16:22:00,74.0,53.0,-100.00,North,2,7.0,17.0,48,0.00,,,0.00,905.000000,,2013-09-03 20:22:00,
2013-09-03 16:32:00,74.0,53.0,-100.00,North,2,7.0,17.0,48,0.00,,,0.00,905.000000,,2013-09-03 20:32:00,
2013-09-03 16:42:00,74.0,53.0,-100.00,North,2,7.0,17.0,48,0.00,,,0.00,905.000000,,2013-09-03 20:42:00,
2013-09-03 17:12:00,75.0,54.0,-100.00,NNW,343,6.0,15.0,48,0.00,,,0.00,772.000000,,2013-09-03 21:12:00,
2013-09-03 17:22:00,75.0,54.0,-100.00,NNW,343,6.0,15.0,48,0.00,,,0.00,772.000000,,2013-09-03 21:22:00,
2013-09-03 17:34:00,75.0,54.0,-100.00,NNW,343,6.0,15.0,48,0.00,,,0.00,772.000000,,2013-09-03 21:34:00,
2013-09-03 17:44:00,75.0,54.0,-100.00,NNW,343,6.0,15.0,48,0.00,,,0.00,772.000000,,2013-09-03 21:44:00,
2013-09-03 18:13:00,75.0,54.0,-100.00,North,4,5.0,12.0,48,0.00,,,0.00,578.000000,,2013-09-03 22:13:00,
2013-09-03 18:24:00,75.0,54.0,-100.00,North,4,5.0,12.0,48,0.00,,,0.00,578.000000,,2013-09-03 22:24:00,
2013-09-03 18:34:00,75.0,54.0,-100.00,North,4,5.0,12.0,48,0.00,,,0.00,578.000000,,2013-09-03 22:34:00,
2013-09-03 18:43:00,75.0,54.0,-100.00,North,4,5.0,12.0,48,0.00,,,0.00,578.000000,,2013-09-03 22:43:00,
2013-09-03 19:12:00,74.0,55.0,-100.00,North,358,5.0,10.0,51,0.00,,,0.00,364.000000,,2013-09-03 23:12:00,
2013-09-03 19:23:00,74.0,55.0,-100.00,North,358,5.0,10.0,51,0.00,,,0.00,364.000000,,2013-09-03 23:23:00,
2013-09-03 19:34:00,74.0,55.0,-100.00,North,358,5.0,10.0,51,0.00,,,0.00,364.000000,,2013-09-03 23:34:00,
2013-09-03 19:42:00,74.0,55.0,-100.00,North,358,5.0,10.0,51,0.00,,,0.00,364.000000,,2013-09-03 23:42:00,
2013-09-03 20:12:00,70.0,57.0,-100.00,NW,316,0.0,-999.0,64,0.00,,,0.00,140.000000,,2013-09-04 00:12:00,
2013-09-03 20:22:00,70.0,57.0,-100.00,NW,316,0.0,-999.0,64,0.00,,,0.00,140.000000,,2013-09-04 00:22:00,
2013-09-03 20:32:00,70.0,57.0,-100.00,NW,316,0.0,-999.0,64,0.00,,,0.00,140.000000,,2013-09-04 00:32:00,
2013-09-03 20:42:00,70.0,57.0,-100.00,NW,316,0.0,-999.0,64,0.00,,,0.00,140.000000,,2013-09-04 00:42:00,
2013-09-03 22:22:00,58.0,57.0,-100.00,West,265,0.0,125.0,97,0.00,,,0.00,0.000000,,2013-09-04 02:22:00,
2013-09-03 22:32:00,58.0,57.0,-100.00,West,265,0.0,125.0,97,0.00,,,0.00,0.000000,,2013-09-04 02:32:00,
2013-09-03 22:43:00,58.0,57.0,-100.00,West,265,0.0,125.0,97,0.00,,,0.00,0.000000,,2013-09-04 02:43:00,
2013-09-03 23:12:00,57.0,56.0,-100.00,ENE,57,1.0,52.0,98,0.00,,,0.00,0.000000,,2013-09-04 03:12:00,
2013-09-03 23:22:00,57.0,56.0,-100.00,ENE,57,1.0,52.0,98,0.00,,,0.00,0.000000,,2013-09-04 03:22:00,
2013-09-03 23:35:00,57.0,56.0,-100.00,ENE,57,1.0,52.0,98,0.00,,,0.00,0.000000,,2013-09-04 03:35:00,
2013-09-03 23:44:00,57.0,56.0,-100.00,ENE,57,1.0,52.0,98,0.00,,,0.00,0.000000,,2013-09-04 03:44:00,